Griddler

Vai direttamente all'ID del puzzle

Scegli i puzzle in base a:
Risolto Question Ordina per
Mostra più filtri >>>
Puzzle per pagina
Pagina N. di 17
Risultato: 320 di 320
ID Descrizione Autore Data Dimensione Punti Popolarità Tempo medio Risolto
192518 Disco Ball yoahi 19/08/18 20x20x2 t-1 14.484 73,08%
192517 Mario Bee roodar 19/08/18 27x34x6 f-1 22.569 89,58%
192516 Darth Maul cascade 19/08/18 30x50x2 f-1 178.374 88,46%
192515 H as Honeydew AliceMagdalena 19/08/18 40x40x7 f-4 4.579
192514 H as Honeydew AliceMagdalena 19/08/18 40x40x7 f-4 6.422
192513 H as Honeydew AliceMagdalena 19/08/18 40x40x7 f-4 3.347
192512 H as Honeydew AliceMagdalena 19/08/18 40x40x7 f-4 5.798 87,50%
192511 G as Grape AliceMagdalena 19/08/18 35x40x6 f-4 3.967
192510 G as Grape AliceMagdalena 19/08/18 35x40x6 f-4 13.050
192509 G as Grape AliceMagdalena 19/08/18 35x40x2 f-4 1.097
192508 G as Grape AliceMagdalena 19/08/18 35x40x6 f-4 11.270 75,00%
192507 F as Fig AliceMagdalena 19/08/18 35x40x5 f-4 1.932
192506 F as Fig AliceMagdalena 19/08/18 35x40x7 f-4 39.229
192505 F as Fig AliceMagdalena 19/08/18 35x40x4 f-4 1.001
192504 F as Fig AliceMagdalena 19/08/18 35x40x4 f-4 3.072
192503 E as Eggplant AliceMagdalena 19/08/18 29x40x5 f-4 3.304
192502 E as Eggplant AliceMagdalena 19/08/18 29x40x6 f-4 4.204
192501 E as Eggplant AliceMagdalena 19/08/18 29x40x2 f-4 190
192500 E as Eggplant AliceMagdalena 19/08/18 29x40x6 f-4 6.409 87,50%
192499 D as Dewberry AliceMagdalena 19/08/18 34x40x5 f-4 2.565
Puzzle per pagina
Pagina N. di 17
Risultato: 320 di 320